Ft Lauderdale, FL

5:46 PM EDT on May 22, 2017 (GMT -0400)
Fort Lauderdale-Hollywood International

Weather History for KFLL - September, 2014

Change the Weather History Date:

Friday, September 12, 2014

  Actual Average Record
Temperature  
Mean Temperature 81 °F 83 °F  
Max Temperature 87 °F 89 °F 99 °F (1935)
Min Temperature 74 °F 78 °F 69 °F (1981)
Degree Days  
Heating Degree Days 0 0  
Month to date heating degree days 0 0  
Since 1 July heating degree days 0 0  
Cooling Degree Days 16 18  
Month to date cooling degree days 233 222  
Year to date cooling degree days 3543 3388  
Growing Degree Days 30 (Base 50)    
Moisture  
Dew Point 72 °F    
Average Humidity 75    
Maximum Humidity 93    
Minimum Humidity 57    
Precipitation  
Precipitation 0.63 in 0.28 in 3.40 in (1954)
Month to date precipitation 1.84 3.36  
Year to date precipitation 45.97 44.43  
Snow  
Snow 0.00 in - - ()
Month to date snowfall 0.0  
Since 1 July snowfall 0.0  
Since 1 September snowfall 0.0  
Snow Depth 0.00 in    
Sea Level Pressure  
Sea Level Pressure 29.96 in    
Wind  
Wind Speed 10 mph (SSW)    
Max Wind Speed 25 mph    
Max Gust Speed 30 mph    
Visibility 9 miles    
Events Rain    
T = Trace of Precipitation, MM = Missing Value Source: NWS Daily Summary

Daily Weather History Graph

Daily Weather History Graph

Search for Another Location

Airport or City:

Trip Planner

Search our weather history database for the weather conditions in past years. The results will help you decide how hot, cold, wet, or windy it might be!

Date:

Astronomy

Sep. 12, 2014 Rise Set
Actual Time 7:05 AM EDT 7:28 PM EDT
Civil Twilight 6:41 AM EDT 7:51 PM EDT
Nautical Twilight 6:14 AM EDT 8:18 PM EDT
Astronomical Twilight 5:47 AM EDT 8:45 PM EDT
Moon 10:14 PM EDT (9/12) 10:41 AM EDT (9/12)
Length of Visible Light 13h 09m
Length of Day
12h 23m
Waning Gibbous, 83% of the Moon is Illuminated
Sep 12
Waning Gibbous
Sep 15
Last Quarter
Sep 24
New
Oct 1
First Quarter
Oct 8
Full

Hourly Weather History & Observations

Time (EDT) Temp. Heat Index Dew Point Humidity Pressure Visibility Wind Dir Wind Speed Gust Speed Precip Events Conditions
12:53 AM 77.0 °F - 73.9 °F 90% 29.97 in 10.0 mi SW 8.1 mph - 0.04 in   Overcast
1:53 AM 75.9 °F - 73.0 °F 91% 29.95 in 10.0 mi WSW 5.8 mph - 0.02 in Rain Light Rain
2:53 AM 75.9 °F - 73.0 °F 91% 29.93 in 10.0 mi West 4.6 mph - 0.01 in   Overcast
3:53 AM 77.0 °F - 75.0 °F 94% 29.94 in 7.0 mi WSW 6.9 mph - 0.01 in Rain Light Rain
4:53 AM 77.0 °F - 73.9 °F 90% 29.93 in 10.0 mi SSW 9.2 mph - 0.05 in Rain Light Rain
5:53 AM 75.9 °F - 72.0 °F 87% 29.94 in 10.0 mi WSW 11.5 mph - 0.00 in   Overcast
6:53 AM 73.9 °F - 70.0 °F 87% 29.95 in 8.0 mi SW 12.7 mph - 0.01 in Rain Light Rain
7:53 AM 73.9 °F - 71.1 °F 91% 29.95 in 10.0 mi WSW 13.8 mph - 0.02 in Rain Light Rain
8:53 AM 78.1 °F - 72.0 °F 81% 29.96 in 10.0 mi SW 12.7 mph - 0.00 in   Mostly Cloudy
9:53 AM 80.1 °F 83.6 °F 71.1 °F 74% 29.97 in 10.0 mi SW 12.7 mph - N/A   Mostly Cloudy
10:53 AM 80.1 °F 83.6 °F 71.1 °F 74% 29.99 in 10.0 mi SW 11.5 mph 20.7 mph N/A   Mostly Cloudy
11:53 AM 84.0 °F 87.8 °F 69.1 °F 61% 29.99 in 10.0 mi SSW 10.4 mph - N/A   Mostly Cloudy
12:53 PM 84.9 °F 88.8 °F 69.1 °F 59% 29.99 in 10.0 mi SSW 11.5 mph 18.4 mph N/A   Mostly Cloudy
1:53 PM 86.0 °F 90.1 °F 69.1 °F 57% 29.96 in 10.0 mi SSW 12.7 mph - N/A   Mostly Cloudy
2:53 PM 80.1 °F 84.2 °F 73.0 °F 79% 29.97 in 9.0 mi SSE 17.3 mph 26.5 mph 0.04 in Rain Light Rain
3:53 PM 80.1 °F 85.1 °F 75.0 °F 85% 29.94 in 10.0 mi Calm Calm - 0.10 in   Scattered Clouds
4:53 PM 84.0 °F 89.0 °F 71.1 °F 65% 29.93 in 10.0 mi SW 9.2 mph - N/A   Scattered Clouds
5:53 PM 84.0 °F 89.0 °F 71.1 °F 65% 29.96 in 10.0 mi ESE 13.8 mph - N/A   Scattered Clouds
6:53 PM 82.9 °F 87.5 °F 71.1 °F 67% 29.96 in 10.0 mi SE 12.7 mph - N/A   Scattered Clouds
7:53 PM 79.0 °F - 73.0 °F 82% 29.93 in 10.0 mi South 8.1 mph - 0.01 in   Mostly Cloudy
8:53 PM 80.1 °F 83.8 °F 72.0 °F 76% 29.95 in 10.0 mi South 6.9 mph - N/A   Mostly Cloudy
9:53 PM 82.0 °F 87.9 °F 73.9 °F 76% 30.00 in 10.0 mi ESE 15.0 mph - N/A   Mostly Cloudy
10:53 PM 77.0 °F - 72.0 °F 84% 30.01 in 3.0 mi East 11.5 mph - 0.11 in Rain Heavy Rain
10:58 PM 75.9 °F - 72.0 °F 87% 30.01 in 2.5 mi East 4.6 mph - 0.10 in Rain Heavy Rain
11:20 PM 75.9 °F - 72.0 °F 87% 30.01 in 5.0 mi Variable 3.5 mph - 0.25 in Rain Light Rain
11:53 PM 80.1 °F 83.8 °F 72.0 °F 76% 30.00 in 10.0 mi Calm Calm - 0.25 in   Scattered Clouds